Вернуться в каталог

PORCUPINE 1

АктивенНаукаLEO
NORAD 1272·PAYLOAD·🇺🇸 United States

Запущен Mar 9, 1965 с Vandenberg Space Force Base

Loading…

Ближайшие Пролёты (ближайшие 24 часа)

TLE

СвежийSource: Space-Track

Эпоха: Sep 14, 2026, 20:57 UTC

1 01272U 65016H   26257.87331709 -.00000023  00000-0  21477-4 0  9991
2 01272  70.0790  59.1133 0022280 357.9278   2.1731 13.94542095128887

Отслеживайте PORCUPINE 1 в реальном времени с AllMySat

Download on the App Store